contact:dominique.lefevre@mio.osupytheas.fr, maurice.libes@osupytheas.fr, didier.mallarino@osupytheas.fr
Project:EMSO http://www.emso-fr.org/EMSO-France
Depth: 2436.0 m
Title:EMSO Ligure Ouest : Data MII capteur AQUADOPP
Date,Latitude,Longitude,X_East,Y_North,Z_Up,Amplitude_X,Amplitude_Y,Amplitude_Z,Batterie,SoundSpeed,Heading,Pitch,Roll,Pressure,TIS,Speed,Direction
, degrees North, degrees East, m.s-1, m.s-1,m.s-1, 1, 1, 1, Volt, m.s-1, degree, degree, degree, dbar, degree_C, m.s-1, degree
2019-11-11T00:09:08,42.805,6.029,0.077,-0.002,-0.03,100.0,103.0,99.0,13.4,1505.2,323.7,-0.8,1.8,2470.129,13.29,0.077,91.5
2019-11-11T00:12:11,42.805,6.029,0.08,-0.001,0.018,101.0,102.0,98.0,13.3,1505.2,325.0,-0.7,1.9,2470.075,13.3,0.08,90.7
2019-11-11T00:15:14,42.805,6.029,0.068,0.001,-0.014,100.0,102.0,98.0,13.4,1505.3,325.0,-0.7,1.8,2470.146,13.31,0.068,89.2
2019-11-11T00:18:17,42.805,6.029,0.073,-0.011,-0.011,100.0,103.0,99.0,13.3,1505.3,326.9,-0.7,1.8,2470.143,13.31,0.073,98.6
2019-11-11T00:21:20,42.805,6.029,0.045,-0.007,-0.011,101.0,103.0,98.0,13.4,1505.3,326.4,-0.7,1.9,2470.127,13.31,0.045,98.8
2019-11-11T00:24:23,42.805,6.029,0.053,-0.009,-0.034,100.0,102.0,97.0,13.4,1505.3,322.8,-0.7,1.8,2470.09,13.32,0.053,99.6
2019-11-11T00:27:26,42.805,6.029,0.081,0.012,-0.013,99.0,103.0,98.0,13.4,1505.3,326.8,-0.7,1.8,2470.083,13.32,0.081,81.6
2019-11-11T00:30:29,42.805,6.029,0.069,-0.014,-0.005,101.0,101.0,99.0,13.4,1505.3,326.8,-0.7,1.9,2470.067,13.32,0.07,101.5
2019-11-11T00:33:32,42.805,6.029,0.065,-0.005,-0.033,100.0,103.0,98.0,13.3,1505.3,327.8,-0.7,1.8,2470.083,13.32,0.065,94.4
2019-11-11T00:36:35,42.805,6.029,0.08,-0.025,-0.014,100.0,103.0,99.0,13.4,1505.3,322.6,-0.7,1.8,2470.078,13.32,0.083,107.4
2019-11-11T00:39:38,42.805,6.029,0.094,-0.014,-0.011,99.0,105.0,99.0,13.4,1505.3,327.3,-0.7,1.8,2470.115,13.32,0.095,98.5
2019-11-11T00:42:41,42.805,6.029,0.061,-0.013,-0.028,100.0,103.0,98.0,13.3,1505.3,324.8,-0.7,1.9,2470.122,13.32,0.062,102.0
2019-11-11T00:45:44,42.805,6.029,0.096,-0.034,0.005,100.0,103.0,98.0,13.4,1505.3,328.3,-0.7,1.8,2470.086,13.32,0.101,109.5
2019-11-11T00:48:47,42.805,6.029,0.052,-0.009,-0.01,100.0,103.0,98.0,13.3,1505.3,325.4,-0.7,1.9,2470.046,13.32,0.052,99.8
2019-11-11T00:51:50,42.805,6.029,0.072,-0.009,-0.01,100.0,103.0,99.0,13.4,1505.3,326.8,-0.7,1.8,2470.085,13.32,0.072,97.1
2019-11-11T00:54:53,42.805,6.029,0.052,0.003,-0.005,100.0,103.0,98.0,13.4,1505.3,324.7,-0.7,1.8,2470.074,13.32,0.052,86.7
2019-11-11T00:57:56,42.805,6.029,0.076,-0.015,0.014,99.0,103.0,99.0,13.3,1505.3,327.9,-0.8,1.9,2470.095,13.32,0.077,101.2
2019-11-11T01:09:08,42.805,6.029,0.069,-0.014,-0.032,101.0,105.0,98.0,13.4,1505.2,325.8,-0.7,1.8,2470.119,13.29,0.07,101.5
2019-11-11T01:12:11,42.805,6.029,0.05,-0.011,-0.027,101.0,103.0,98.0,13.4,1505.2,327.4,-0.7,1.8,2470.085,13.3,0.051,102.4
2019-11-11T01:15:14,42.805,6.029,0.06,-0.007,-0.016,101.0,103.0,98.0,13.4,1505.3,328.1,-0.7,1.8,2470.134,13.31,0.06,96.7
2019-11-11T01:18:17,42.805,6.029,0.069,0.003,0.022,100.0,103.0,98.0,13.4,1505.3,325.7,-0.7,1.8,2470.092,13.31,0.069,87.5
2019-11-11T01:21:20,42.805,6.029,0.069,-0.009,-0.045,100.0,103.0,98.0,13.3,1505.3,327.8,-0.7,1.9,2470.093,13.32,0.069,97.4
2019-11-11T01:24:23,42.805,6.029,0.065,0.003,-0.02,99.0,103.0,98.0,13.4,1505.3,326.4,-0.7,1.8,2470.122,13.32,0.065,87.4
2019-11-11T01:27:26,42.805,6.029,0.064,-0.019,-0.021,99.0,103.0,99.0,13.3,1505.3,327.7,-0.7,1.8,2470.119,13.32,0.066,106.5
2019-11-11T01:30:29,42.805,6.029,0.076,0.001,-0.027,100.0,101.0,99.0,13.3,1505.3,326.6,-0.7,1.8,2470.094,13.32,0.076,89.2
2019-11-11T01:33:32,42.805,6.029,0.047,-0.003,-0.023,100.0,102.0,98.0,13.4,1505.3,325.4,-0.7,1.9,2470.107,13.32,0.047,93.6
2019-11-11T01:36:35,42.805,6.029,0.068,-0.016,-0.045,99.0,104.0,99.0,13.4,1505.3,326.4,-0.7,1.8,2470.113,13.32,0.069,103.2
2019-11-11T01:39:38,42.805,6.029,0.062,0.0,0.002,101.0,101.0,99.0,13.4,1505.3,323.3,-0.7,1.8,2470.086,13.32,0.061,90.0
2019-11-11T01:42:41,42.805,6.029,0.06,-0.014,-0.038,101.0,101.0,99.0,13.4,1505.3,326.4,-0.7,1.9,2470.07,13.32,0.061,103.1
2019-11-11T01:45:44,42.805,6.029,0.097,-0.018,-0.001,100.0,102.0,99.0,13.4,1505.3,326.2,-0.7,1.8,2470.077,13.32,0.098,100.5
2019-11-11T01:48:47,42.805,6.029,0.072,-0.013,0.02,101.0,104.0,98.0,13.3,1505.3,326.0,-0.7,1.8,2470.084,13.32,0.073,100.2
2019-11-11T01:51:50,42.805,6.029,0.065,0.005,-0.019,100.0,103.0,99.0,13.4,1505.3,325.2,-0.7,1.8,2470.083,13.32,0.065,85.6
2019-11-11T01:54:53,42.805,6.029,0.072,-0.001,0.025,102.0,102.0,98.0,13.4,1505.3,327.6,-0.7,1.8,2470.068,13.32,0.072,90.8
2019-11-11T01:57:56,42.805,6.029,0.079,-0.01,-0.007,99.0,105.0,99.0,13.4,1505.3,327.1,-0.7,1.8,2470.082,13.32,0.079,97.2
2019-11-11T02:09:09,42.805,6.029,0.088,0.007,0.001,101.0,102.0,98.0,13.4,1505.2,327.0,-0.8,1.8,2470.104,13.29,0.088,85.5
2019-11-11T02:12:12,42.805,6.029,0.088,-0.007,-0.002,99.0,104.0,99.0,13.4,1505.2,327.2,-0.7,1.8,2470.123,13.3,0.088,94.5
2019-11-11T02:15:15,42.805,6.029,0.062,-0.005,0.042,101.0,101.0,98.0,13.3,1505.3,327.2,-0.7,1.8,2470.093,13.31,0.062,94.6
2019-11-11T02:18:18,42.805,6.029,0.073,-0.021,0.003,102.0,103.0,98.0,13.3,1505.3,327.3,-0.7,1.8,2470.136,13.31,0.075,106.0
2019-11-11T02:21:21,42.805,6.029,0.063,-0.009,-0.005,101.0,103.0,99.0,13.4,1505.3,327.2,-0.7,1.8,2470.13,13.32,0.063,98.1
2019-11-11T02:24:24,42.805,6.029,0.038,-0.012,-0.028,100.0,103.0,98.0,13.4,1505.3,327.3,-0.7,1.8,2470.139,13.32,0.039,107.5
2019-11-11T02:27:27,42.805,6.029,0.052,-0.013,-0.016,100.0,103.0,99.0,13.4,1505.3,325.5,-0.7,1.8,2470.11,13.32,0.053,104.0
2019-11-11T02:30:30,42.805,6.029,0.093,0.005,-0.007,99.0,103.0,99.0,13.4,1505.3,326.3,-0.7,1.8,2470.128,13.32,0.093,86.9
2019-11-11T02:33:33,42.805,6.029,0.067,0.014,0.004,101.0,102.0,99.0,13.4,1505.3,323.7,-0.7,1.9,2470.139,13.32,0.068,78.2
2019-11-11T02:36:36,42.805,6.029,0.084,-0.023,-0.021,100.0,103.0,99.0,13.3,1505.3,326.6,-0.7,1.8,2470.132,13.32,0.087,105.3
2019-11-11T02:39:39,42.805,6.029,0.043,0.001,0.0,99.0,102.0,100.0,13.4,1505.3,324.6,-0.7,1.8,2470.131,13.32,0.043,88.7
2019-11-11T02:42:42,42.805,6.029,0.062,-0.005,-0.02,99.0,104.0,99.0,13.4,1505.3,328.0,-0.7,1.8,2470.134,13.32,0.062,94.6
2019-11-11T02:45:45,42.805,6.029,0.047,0.0,-0.042,100.0,102.0,99.0,13.4,1505.3,324.6,-0.7,1.8,2470.156,13.32,0.047,90.0
2019-11-11T02:48:48,42.805,6.029,0.079,-0.025,-0.003,103.0,103.0,98.0,13.4,1505.3,326.9,-0.7,1.8,2470.125,13.32,0.082,107.6
2019-11-11T02:51:51,42.805,6.029,0.054,-0.005,0.007,100.0,102.0,99.0,13.3,1505.3,325.2,-0.7,1.8,2470.129,13.32,0.054,95.3
2019-11-11T02:54:54,42.805,6.029,0.057,-0.008,0.008,102.0,105.0,98.0,13.3,1505.3,325.0,-0.7,1.9,2470.147,13.32,0.057,98.0
2019-11-11T02:57:57,42.805,6.029,0.059,-0.001,-0.025,100.0,104.0,98.0,13.3,1505.3,325.2,-0.7,1.8,2470.139,13.32,0.059,91.0
2019-11-11T03:09:09,42.805,6.029,0.051,0.003,-0.026,100.0,104.0,99.0,13.4,1505.2,327.6,-0.8,1.8,2470.171,13.29,0.051,86.6
2019-11-11T03:12:12,42.805,6.029,0.091,-0.002,0.029,102.0,105.0,98.0,13.4,1505.3,323.0,-0.7,1.8,2470.173,13.31,0.091,91.3
2019-11-11T03:15:15,42.805,6.029,0.063,0.024,-0.008,100.0,106.0,98.0,13.4,1505.3,324.8,-0.7,1.8,2470.227,13.31,0.067,69.1
2019-11-11T03:18:18,42.805,6.029,0.026,0.002,-0.056,101.0,104.0,99.0,13.4,1505.3,324.1,-0.7,1.8,2470.151,13.32,0.026,85.6
2019-11-11T03:21:21,42.805,6.029,0.043,0.001,-0.035,102.0,105.0,98.0,13.3,1505.3,327.5,-0.7,1.9,2470.189,13.32,0.043,88.7
2019-11-11T03:24:24,42.805,6.029,0.071,0.009,0.009,100.0,102.0,99.0,13.3,1505.3,328.1,-0.7,1.8,2470.15,13.32,0.071,82.8
2019-11-11T03:27:27,42.805,6.029,0.049,-0.01,-0.017,101.0,102.0,100.0,13.4,1505.3,323.6,-0.7,1.8,2470.153,13.32,0.05,101.5
2019-11-11T03:30:30,42.805,6.029,0.048,0.008,-0.014,99.0,106.0,99.0,13.3,1505.3,325.1,-0.7,1.8,2470.169,13.32,0.048,80.5
2019-11-11T03:33:33,42.805,6.029,0.071,0.017,-0.001,98.0,105.0,99.0,13.4,1505.3,324.5,-0.7,1.8,2470.168,13.32,0.073,76.5
2019-11-11T03:36:36,42.805,6.029,0.053,0.008,-0.052,101.0,102.0,98.0,13.4,1505.3,328.6,-0.7,1.9,2470.14,13.32,0.053,81.4
2019-11-11T03:39:39,42.805,6.029,0.043,-0.006,-0.05,100.0,102.0,99.0,13.3,1505.3,324.4,-0.7,1.8,2470.151,13.32,0.043,97.9
2019-11-11T03:42:42,42.805,6.029,0.076,-0.005,-0.017,99.0,104.0,100.0,13.4,1505.3,327.1,-0.7,1.8,2470.152,13.32,0.076,93.8
2019-11-11T03:45:45,42.805,6.029,0.066,-0.003,-0.036,100.0,105.0,98.0,13.3,1505.3,326.7,-0.7,1.8,2470.178,13.32,0.066,92.6
2019-11-11T03:48:48,42.805,6.029,0.065,0.0,-0.023,100.0,103.0,99.0,13.4,1505.3,327.4,-0.7,1.8,2470.204,13.32,0.064,90.0
2019-11-11T03:51:51,42.805,6.029,0.049,-0.014,-0.075,100.0,104.0,99.0,13.4,1505.3,326.9,-0.7,1.8,2470.191,13.32,0.05,105.9
2019-11-11T03:54:54,42.805,6.029,0.039,0.005,-0.073,100.0,103.0,98.0,13.3,1505.3,326.3,-0.7,1.8,2470.14,13.32,0.039,82.7
2019-11-11T03:57:57,42.805,6.029,0.035,0.015,-0.012,100.0,106.0,99.0,13.4,1505.3,326.9,-0.7,1.8,2470.167,13.32,0.038,66.8
2019-11-11T04:09:09,42.805,6.029,0.058,-0.001,-0.035,99.0,103.0,98.0,13.4,1505.2,328.4,-0.8,1.8,2470.224,13.29,0.058,91.0
2019-11-11T04:12:12,42.805,6.029,0.051,-0.009,0.005,101.0,103.0,98.0,13.3,1505.3,326.5,-0.7,1.8,2470.244,13.31,0.051,100.0
2019-11-11T04:15:15,42.805,6.029,0.03,0.007,-0.046,100.0,104.0,99.0,13.4,1505.3,328.5,-0.7,1.9,2470.235,13.31,0.03,76.9
2019-11-11T04:18:18,42.805,6.029,0.03,-0.012,-0.031,98.0,105.0,100.0,13.4,1505.3,326.2,-0.7,1.8,2470.286,13.32,0.032,111.8
2019-11-11T04:21:21,42.805,6.029,0.044,0.008,-0.072,101.0,105.0,97.0,13.3,1505.3,327.6,-0.7,1.8,2470.219,13.32,0.044,79.7
2019-11-11T04:24:24,42.805,6.029,0.035,0.011,-0.02,101.0,104.0,98.0,13.3,1505.3,326.5,-0.7,1.8,2470.188,13.32,0.036,72.6
2019-11-11T04:27:27,42.805,6.029,0.039,0.007,-0.019,100.0,104.0,98.0,13.4,1505.3,326.8,-0.7,1.8,2470.238,13.32,0.039,79.8
2019-11-11T04:30:30,42.805,6.029,0.059,0.009,-0.028,101.0,104.0,97.0,13.4,1505.3,323.4,-0.7,1.8,2470.193,13.32,0.059,81.3
2019-11-11T04:33:33,42.805,6.029,0.039,0.015,-0.055,100.0,104.0,97.0,13.3,1505.3,324.5,-0.8,1.8,2470.195,13.32,0.041,69.0
2019-11-11T04:36:36,42.805,6.029,0.031,0.0,-0.022,102.0,103.0,99.0,13.3,1505.3,324.1,-0.7,1.8,2470.176,13.33,0.03,90.0
2019-11-11T04:39:39,42.805,6.029,0.013,-0.01,-0.048,101.0,103.0,99.0,13.4,1505.3,326.4,-0.7,1.8,2470.202,13.33,0.016,127.6
2019-11-11T04:42:42,42.805,6.029,0.03,0.011,-0.017,100.0,104.0,99.0,13.3,1505.3,325.9,-0.7,1.8,2470.214,13.33,0.031,69.9
2019-11-11T04:45:45,42.805,6.029,0.024,0.0,-0.075,100.0,104.0,99.0,13.3,1505.3,326.9,-0.7,1.9,2470.21,13.33,0.024,90.0
2019-11-11T04:48:48,42.805,6.029,0.035,0.012,-0.03,99.0,105.0,99.0,13.4,1505.3,327.9,-0.7,1.8,2470.208,13.33,0.037,71.1
2019-11-11T04:51:51,42.805,6.029,0.023,0.003,-0.038,100.0,103.0,99.0,13.4,1505.3,324.2,-0.7,1.8,2470.178,13.33,0.023,82.6
2019-11-11T04:54:54,42.805,6.029,0.04,-0.012,-0.073,100.0,104.0,99.0,13.4,1505.3,326.7,-0.7,1.8,2470.219,13.33,0.041,106.7
2019-11-11T04:57:57,42.805,6.029,0.032,0.005,-0.025,100.0,105.0,98.0,13.4,1505.3,326.9,-0.7,1.8,2470.22,13.33,0.032,81.1
2019-11-11T05:09:08,42.805,6.029,0.024,0.013,-0.036,101.0,104.0,98.0,13.4,1505.2,326.8,-0.7,1.8,2470.248,13.3,0.027,61.6
2019-11-11T05:12:11,42.805,6.029,0.062,0.017,-0.007,99.0,103.0,98.0,13.4,1505.3,323.3,-0.8,1.8,2470.231,13.31,0.064,74.7
2019-11-11T05:15:14,42.805,6.029,0.014,0.012,-0.049,101.0,103.0,98.0,13.4,1505.3,325.8,-0.7,1.9,2470.239,13.31,0.018,49.4
2019-11-11T05:18:17,42.805,6.029,0.033,0.021,-0.035,100.0,103.0,98.0,13.4,1505.3,325.9,-0.7,1.8,2470.237,13.32,0.039,57.5
2019-11-11T05:21:20,42.805,6.029,0.023,0.018,-0.035,99.0,104.0,98.0,13.3,1505.3,327.4,-0.7,1.8,2470.233,13.32,0.029,52.0
2019-11-11T05:24:23,42.805,6.029,0.0,0.012,-0.068,101.0,103.0,98.0,13.3,1505.3,327.6,-0.7,1.9,2470.221,13.32,0.012,0.0
2019-11-11T05:27:26,42.805,6.029,0.007,-0.011,-0.062,100.0,105.0,97.0,13.4,1505.3,323.4,-0.7,1.8,2470.273,13.33,0.013,147.5
2019-11-11T05:30:29,42.805,6.029,0.036,0.014,-0.03,99.0,103.0,98.0,13.4,1505.3,325.0,-0.7,1.8,2470.25,13.33,0.038,68.8
2019-11-11T05:33:32,42.805,6.029,0.028,0.008,-0.035,101.0,104.0,98.0,13.4,1505.3,328.1,-0.7,1.9,2470.253,13.33,0.029,74.1
2019-11-11T05:36:35,42.805,6.029,0.016,0.004,-0.036,99.0,104.0,98.0,13.4,1505.3,322.8,-0.7,1.8,2470.258,13.33,0.016,76.0
2019-11-11T05:39:38,42.805,6.029,0.012,0.004,-0.044,101.0,103.0,98.0,13.4,1505.3,326.4,-0.7,1.8,2470.23,13.33,0.012,71.6
2019-11-11T05:42:41,42.805,6.029,0.061,0.02,-0.016,99.0,104.0,99.0,13.4,1505.3,325.9,-0.7,1.8,2470.251,13.33,0.064,71.9
2019-11-11T05:45:44,42.805,6.029,0.042,0.013,-0.024,100.0,102.0,98.0,13.3,1505.3,325.1,-0.7,1.8,2470.233,13.33,0.043,72.8
2019-11-11T05:48:47,42.805,6.029,0.049,0.012,-0.045,99.0,103.0,99.0,13.3,1505.3,325.1,-0.7,1.8,2470.259,13.33,0.05,76.2
2019-11-11T05:51:50,42.805,6.029,0.049,0.024,-0.007,100.0,103.0,98.0,13.4,1505.3,323.4,-0.7,1.8,2470.223,13.33,0.054,63.9
2019-11-11T05:54:53,42.805,6.029,0.045,0.033,-0.018,101.0,104.0,98.0,13.4,1505.3,327.3,-0.7,1.8,2470.213,13.33,0.055,53.7
2019-11-11T05:57:56,42.805,6.029,0.02,0.025,-0.018,99.0,102.0,98.0,13.4,1505.3,323.7,-0.7,1.9,2470.234,13.33,0.032,38.7
2019-11-11T06:09:08,42.805,6.029,0.029,0.017,-0.015,102.0,101.0,98.0,13.3,1505.2,324.3,-0.8,1.8,2470.275,13.3,0.033,59.6
2019-11-11T06:12:11,42.805,6.029,0.015,-0.007,-0.066,101.0,105.0,98.0,13.4,1505.3,328.2,-0.7,1.8,2470.248,13.31,0.016,115.0
2019-11-11T06:15:14,42.805,6.029,0.032,0.017,-0.028,100.0,104.0,97.0,13.4,1505.3,323.6,-0.7,1.8,2470.253,13.32,0.036,62.0
2019-11-11T06:18:17,42.805,6.029,0.029,0.012,-0.045,99.0,105.0,98.0,13.3,1505.3,325.9,-0.8,1.9,2470.281,13.32,0.031,67.5
2019-11-11T06:21:20,42.805,6.029,-0.014,0.003,-0.039,99.0,105.0,98.0,13.4,1505.3,326.1,-0.7,1.9,2470.261,13.32,0.014,282.1
2019-11-11T06:24:23,42.805,6.029,0.005,0.018,-0.039,98.0,105.0,98.0,13.3,1505.3,324.9,-0.7,1.8,2470.306,13.32,0.018,15.5
2019-11-11T06:27:26,42.805,6.029,0.041,0.031,0.033,100.0,104.0,97.0,13.4,1505.3,325.1,-0.7,1.8,2470.3,13.33,0.051,52.9
2019-11-11T06:30:29,42.805,6.029,0.103,0.025,0.018,98.0,105.0,99.0,13.3,1505.3,327.3,-0.7,1.9,2470.281,13.33,0.105,76.4
2019-11-11T06:33:32,42.805,6.029,0.06,0.007,-0.006,100.0,104.0,98.0,13.4,1505.3,325.6,-0.7,1.8,2470.295,13.33,0.06,83.3
2019-11-11T06:36:35,42.805,6.029,0.092,0.02,-0.013,99.0,103.0,99.0,13.4,1505.3,327.3,-0.7,1.9,2470.21,13.33,0.094,77.7
2019-11-11T06:39:38,42.805,6.029,0.065,0.034,0.01,100.0,103.0,99.0,13.4,1505.3,328.4,-0.7,1.8,2470.229,13.33,0.073,62.4
2019-11-11T06:42:41,42.805,6.029,0.074,0.033,-0.008,101.0,103.0,98.0,13.4,1505.3,324.6,-0.7,1.9,2470.231,13.33,0.081,66.0
2019-11-11T06:45:44,42.805,6.029,0.057,0.033,0.009,100.0,102.0,97.0,13.3,1505.3,325.5,-0.7,1.8,2470.23,13.33,0.065,59.9
2019-11-11T06:48:47,42.805,6.029,0.026,0.026,-0.038,100.0,103.0,97.0,13.3,1505.3,323.5,-0.7,1.8,2470.246,13.33,0.036,45.0
2019-11-11T06:51:50,42.805,6.029,0.062,0.006,-0.013,101.0,104.0,98.0,13.3,1505.3,325.1,-0.7,1.9,2470.248,13.33,0.062,84.5
2019-11-11T06:54:53,42.805,6.029,0.062,0.012,-0.037,100.0,105.0,99.0,13.4,1505.3,326.2,-0.7,1.8,2470.242,13.33,0.063,79.0
2019-11-11T06:57:56,42.805,6.029,0.067,0.007,0.005,99.0,104.0,100.0,13.4,1505.3,325.8,-0.7,1.8,2470.216,13.33,0.067,84.0
2019-11-11T07:09:08,42.805,6.029,0.085,0.019,0.003,100.0,104.0,97.0,13.3,1505.2,325.6,-0.8,1.8,2470.266,13.3,0.087,77.4
2019-11-11T07:12:11,42.805,6.029,0.048,0.016,-0.028,99.0,104.0,98.0,13.4,1505.3,328.5,-0.8,1.8,2470.29,13.31,0.05,71.6
2019-11-11T07:15:14,42.805,6.029,0.022,0.004,-0.042,101.0,104.0,98.0,13.3,1505.3,326.4,-0.7,1.8,2470.295,13.31,0.022,79.7
2019-11-11T07:18:17,42.805,6.029,0.01,0.012,-0.041,100.0,104.0,99.0,13.4,1505.3,327.8,-0.7,1.8,2470.261,13.32,0.015,39.8
2019-11-11T07:21:20,42.805,6.029,0.04,0.028,-0.019,100.0,105.0,99.0,13.4,1505.3,326.4,-0.7,1.8,2470.276,13.32,0.048,55.0
2019-11-11T07:24:23,42.805,6.029,0.021,0.01,-0.003,100.0,105.0,100.0,13.4,1505.3,328.0,-0.7,1.8,2470.258,13.32,0.023,64.5
2019-11-11T07:27:26,42.805,6.029,0.037,0.041,0.006,100.0,105.0,98.0,13.4,1505.3,323.1,-0.8,1.9,2470.248,13.32,0.055,42.1
2019-11-11T07:30:29,42.805,6.029,0.044,0.041,-0.007,101.0,108.0,97.0,13.4,1505.3,325.3,-0.7,1.8,2470.259,13.32,0.06,47.0
2019-11-11T07:33:32,42.805,6.029,0.02,0.023,-0.012,101.0,106.0,98.0,13.3,1505.3,325.9,-0.7,1.8,2470.246,13.32,0.03,41.0
2019-11-11T07:36:35,42.805,6.029,0.052,0.016,-0.001,99.0,106.0,98.0,13.4,1505.3,325.2,-0.8,1.8,2470.226,13.32,0.054,72.9
2019-11-11T07:39:38,42.805,6.029,0.051,0.042,-0.025,100.0,106.0,98.0,13.3,1505.3,324.9,-0.7,1.8,2470.212,13.33,0.066,50.5
2019-11-11T07:42:41,42.805,6.029,0.012,0.032,-0.059,99.0,108.0,98.0,13.3,1505.3,324.9,-0.7,1.8,2470.274,13.32,0.034,20.6
2019-11-11T07:45:44,42.805,6.029,0.034,0.0,-0.037,100.0,106.0,98.0,13.3,1505.3,325.7,-0.7,1.8,2470.264,13.32,0.034,90.0
2019-11-11T07:48:47,42.805,6.029,0.047,0.027,-0.038,100.0,108.0,96.0,13.4,1505.3,325.5,-0.7,1.8,2470.213,13.32,0.054,60.1
2019-11-11T07:51:50,42.805,6.029,0.035,0.01,-0.021,100.0,106.0,98.0,13.3,1505.3,327.9,-0.7,1.9,2470.251,13.32,0.036,74.1
2019-11-11T07:54:53,42.805,6.029,0.064,0.023,-0.016,101.0,107.0,97.0,13.3,1505.3,327.6,-0.7,1.8,2470.236,13.32,0.068,70.2
2019-11-11T07:57:56,42.805,6.029,0.048,0.016,-0.014,100.0,107.0,98.0,13.4,1505.3,324.3,-0.7,1.8,2470.192,13.32,0.05,71.6
2019-11-11T08:09:08,42.805,6.029,0.011,0.02,-0.032,100.0,107.0,98.0,13.4,1505.2,324.2,-0.8,1.8,2470.28,13.3,0.022,28.8
2019-11-11T08:12:11,42.805,6.029,0.02,0.016,-0.058,100.0,108.0,98.0,13.4,1505.3,325.8,-0.7,1.8,2470.268,13.31,0.025,51.3
2019-11-11T08:15:14,42.805,6.029,0.029,0.013,-0.051,100.0,106.0,98.0,13.3,1505.3,327.9,-0.7,1.8,2470.204,13.31,0.031,65.9
2019-11-11T08:18:17,42.805,6.029,0.025,0.04,-0.032,100.0,107.0,98.0,13.4,1505.3,324.6,-0.7,1.8,2470.249,13.32,0.047,32.0
2019-11-11T08:21:20,42.805,6.029,0.01,0.027,-0.053,100.0,107.0,98.0,13.3,1505.3,323.6,-0.7,1.8,2470.248,13.32,0.028,20.3
2019-11-11T08:24:23,42.805,6.029,0.045,0.005,-0.026,100.0,107.0,98.0,13.3,1505.3,325.1,-0.7,1.8,2470.219,13.32,0.045,83.7
2019-11-11T08:27:26,42.805,6.029,0.047,0.037,-0.023,100.0,107.0,98.0,13.4,1505.3,326.4,-0.7,1.9,2470.205,13.32,0.059,51.8
2019-11-11T08:30:29,42.805,6.029,0.041,0.015,-0.025,99.0,106.0,98.0,13.4,1505.3,326.2,-0.7,1.8,2470.203,13.32,0.043,69.9
2019-11-11T08:33:32,42.805,6.029,0.039,0.013,-0.04,99.0,107.0,99.0,13.4,1505.3,325.4,-0.7,1.9,2470.243,13.32,0.041,71.6
2019-11-11T08:36:35,42.805,6.029,0.039,0.004,-0.024,100.0,106.0,99.0,13.3,1505.3,326.3,-0.7,1.9,2470.208,13.32,0.039,84.1
2019-11-11T08:39:38,42.805,6.029,0.029,0.027,-0.025,100.0,106.0,98.0,13.3,1505.3,324.9,-0.7,1.8,2470.245,13.32,0.039,47.0
2019-11-11T08:42:41,42.805,6.029,0.029,0.028,-0.026,100.0,105.0,98.0,13.4,1505.3,325.9,-0.7,1.8,2470.17,13.32,0.04,46.0
2019-11-11T08:45:44,42.805,6.029,0.06,0.015,-0.038,100.0,107.0,98.0,13.4,1505.3,326.8,-0.7,1.8,2470.181,13.32,0.061,76.0
2019-11-11T08:48:47,42.805,6.029,0.026,0.042,0.001,101.0,106.0,99.0,13.4,1505.3,324.9,-0.7,1.9,2470.174,13.32,0.049,31.8
2019-11-11T08:51:50,42.805,6.029,0.035,0.045,-0.027,102.0,107.0,98.0,13.3,1505.3,323.7,-0.7,1.9,2470.221,13.32,0.057,37.9
2019-11-11T08:54:53,42.805,6.029,0.034,0.014,-0.033,100.0,105.0,99.0,13.4,1505.3,326.7,-0.7,1.8,2470.202,13.32,0.036,67.6
2019-11-11T08:57:56,42.805,6.029,0.03,0.038,-0.008,100.0,105.0,100.0,13.4,1505.3,327.1,-0.7,1.8,2470.215,13.32,0.048,38.3
2019-11-11T09:09:08,42.805,6.029,0.034,0.018,-0.03,99.0,106.0,98.0,13.4,1505.2,326.3,-0.8,1.8,2470.245,13.3,0.038,62.1
2019-11-11T09:12:11,42.805,6.029,0.054,0.016,-0.036,100.0,107.0,98.0,13.4,1505.3,326.1,-0.7,1.8,2470.219,13.31,0.056,73.5
2019-11-11T09:15:14,42.805,6.029,0.011,0.023,-0.059,100.0,107.0,98.0,13.4,1505.3,326.0,-0.7,1.8,2470.216,13.31,0.025,25.6
2019-11-11T09:18:17,42.805,6.029,0.007,0.032,-0.07,101.0,108.0,99.0,13.4,1505.3,325.1,-0.7,1.8,2470.181,13.32,0.032,12.3
2019-11-11T09:21:20,42.805,6.029,0.018,0.028,-0.054,99.0,108.0,99.0,13.4,1505.3,324.4,-0.7,1.8,2470.195,13.32,0.033,32.7
2019-11-11T09:24:23,42.805,6.029,-0.012,0.0,-0.091,104.0,109.0,99.0,13.4,1505.3,323.4,-0.8,1.8,2470.228,13.32,0.012,270.0
2019-11-11T09:27:26,42.805,6.029,0.03,0.015,-0.045,99.0,107.0,99.0,13.4,1505.3,324.5,-0.7,1.8,2470.182,13.32,0.033,63.4
2019-11-11T09:30:29,42.805,6.029,0.033,0.018,-0.046,100.0,108.0,96.0,13.4,1505.3,326.8,-0.7,1.8,2470.176,13.32,0.037,61.4
2019-11-11T09:33:32,42.805,6.029,0.035,0.042,-0.014,101.0,108.0,97.0,13.4,1505.3,324.5,-0.7,1.8,2470.2,13.32,0.054,39.8
2019-11-11T09:36:35,42.805,6.029,0.028,0.026,-0.07,102.0,108.0,99.0,13.4,1505.3,323.7,-0.7,1.8,2470.158,13.32,0.038,47.1
2019-11-11T09:39:38,42.805,6.029,0.021,0.038,-0.019,100.0,109.0,98.0,13.4,1505.3,327.9,-0.7,1.8,2470.158,13.32,0.043,28.9
2019-11-11T09:42:41,42.805,6.029,0.062,0.025,-0.021,100.0,108.0,98.0,13.3,1505.3,327.1,-0.7,1.8,2470.14,13.32,0.066,68.0
2019-11-11T09:45:44,42.805,6.029,0.055,0.03,-0.015,101.0,107.0,99.0,13.3,1505.3,327.3,-0.7,1.9,2470.137,13.32,0.062,61.4
2019-11-11T09:48:47,42.805,6.029,-0.004,0.011,-0.077,99.0,109.0,98.0,13.4,1505.3,323.7,-0.7,1.9,2470.194,13.32,0.011,340.0
2019-11-11T09:51:50,42.805,6.029,0.034,0.041,-0.03,99.0,109.0,98.0,13.4,1505.3,324.4,-0.7,1.8,2470.164,13.32,0.053,39.7
2019-11-11T09:54:53,42.805,6.029,0.045,0.011,-0.023,99.0,109.0,99.0,13.3,1505.3,324.4,-0.7,1.8,2470.167,13.32,0.046,76.3
2019-11-11T09:57:56,42.805,6.029,0.034,0.014,-0.035,101.0,108.0,99.0,13.3,1505.3,323.8,-0.7,1.8,2470.163,13.32,0.036,67.6
2019-11-11T10:09:08,42.805,6.029,0.05,0.026,-0.022,100.0,111.0,98.0,13.4,1505.2,324.6,-0.8,1.8,2470.201,13.29,0.056,62.5
2019-11-11T10:12:11,42.805,6.029,0.031,0.018,-0.046,100.0,110.0,98.0,13.4,1505.2,325.2,-0.7,1.8,2470.183,13.3,0.035,59.9
2019-11-11T10:15:14,42.805,6.029,0.035,0.038,-0.047,100.0,109.0,99.0,13.4,1505.3,327.8,-0.8,1.9,2470.143,13.31,0.051,42.6
2019-11-11T10:18:17,42.805,6.029,0.049,0.022,-0.021,100.0,110.0,98.0,13.4,1505.3,323.3,-0.7,1.8,2470.173,13.32,0.053,65.8
2019-11-11T10:21:20,42.805,6.029,0.026,0.039,-0.037,101.0,111.0,99.0,13.3,1505.3,327.3,-0.7,1.8,2470.191,13.32,0.046,33.7
2019-11-11T10:24:23,42.805,6.029,0.018,0.046,-0.083,100.0,112.0,98.0,13.4,1505.3,326.3,-0.7,1.8,2470.147,13.32,0.049,21.4
2019-11-11T10:27:26,42.805,6.029,0.024,0.032,-0.04,99.0,114.0,98.0,13.4,1505.3,327.3,-0.7,1.8,2470.163,13.32,0.04,36.9
2019-11-11T10:30:29,42.805,6.029,0.045,0.026,-0.046,99.0,112.0,99.0,13.4,1505.3,325.9,-0.7,1.8,2470.125,13.32,0.051,60.0
2019-11-11T10:33:32,42.805,6.029,0.053,0.047,-0.027,100.0,110.0,98.0,13.4,1505.3,326.5,-0.7,1.8,2470.168,13.32,0.07,48.4
2019-11-11T10:36:35,42.805,6.029,0.015,0.019,-0.051,100.0,110.0,98.0,13.4,1505.3,326.6,-0.7,1.8,2470.123,13.32,0.024,38.3
2019-11-11T10:39:38,42.805,6.029,0.058,0.01,-0.024,100.0,111.0,98.0,13.3,1505.3,325.2,-0.7,1.9,2470.135,13.32,0.058,80.2
2019-11-11T10:42:41,42.805,6.029,0.05,0.006,-0.049,99.0,108.0,99.0,13.3,1505.3,325.6,-0.7,1.8,2470.126,13.32,0.05,83.2
2019-11-11T10:45:44,42.805,6.029,0.058,0.008,-0.019,101.0,108.0,98.0,13.4,1505.3,325.3,-0.7,1.8,2470.127,13.32,0.058,82.2
2019-11-11T10:48:47,42.805,6.029,0.052,0.01,-0.029,100.0,110.0,98.0,13.4,1505.3,325.8,-0.7,1.8,2470.119,13.32,0.052,79.1
2019-11-11T10:51:50,42.805,6.029,0.021,0.031,-0.028,100.0,110.0,98.0,13.4,1505.3,326.6,-0.6,1.8,2470.154,13.32,0.037,34.1
2019-11-11T10:54:53,42.805,6.029,0.02,0.044,-0.019,100.0,110.0,99.0,13.4,1505.3,327.0,-0.7,1.9,2470.128,13.32,0.048,24.4
2019-11-11T10:57:56,42.805,6.029,0.045,0.007,-0.053,100.0,110.0,99.0,13.4,1505.3,327.5,-0.7,1.8,2470.132,13.32,0.045,81.2
2019-11-11T11:09:09,42.805,6.029,0.014,0.023,-0.061,100.0,110.0,98.0,13.4,1505.2,322.8,-0.7,1.8,2470.138,13.29,0.026,31.3
2019-11-11T11:12:12,42.805,6.029,0.064,0.028,-0.037,102.0,110.0,97.0,13.4,1505.2,325.3,-0.7,1.9,2470.127,13.3,0.069,66.4
2019-11-11T11:15:15,42.805,6.029,0.021,0.025,-0.052,99.0,112.0,98.0,13.4,1505.3,327.1,-0.7,1.9,2470.154,13.31,0.032,40.0
2019-11-11T11:18:18,42.805,6.029,0.05,0.027,-0.042,100.0,109.0,98.0,13.4,1505.3,324.1,-0.7,1.9,2470.108,13.31,0.056,61.6
2019-11-11T11:21:21,42.805,6.029,0.058,0.014,-0.018,100.0,112.0,98.0,13.4,1505.3,326.5,-0.7,1.9,2470.149,13.32,0.059,76.4
2019-11-11T11:24:24,42.805,6.029,-0.004,0.04,-0.06,99.0,111.0,99.0,13.4,1505.3,327.2,-0.7,1.8,2470.163,13.32,0.04,354.3